M I D A S
Marine Information and Data Acquisition System
Tripno 1476 of the Zeeleeuw from 2008-02-19 07:49:17 to 2008-02-19 15:36:32
Back to CruiseResearch ActivitiesStationsMapUnderway DataData graphs

EquipmentUnitsComment
TimeDGPSUTC
LatitudeDGPSDM.mWGS84
LongitudeDGPSDM.mWGS84
TemperatureSBE03/SBE38deg celciusITS90
ConductivitySBE21S/mITS90
SalinitySBE21 Practical Salinity Units
ChlorophylAChelsea fluorimeterg/lCalibrated in Aceton
Missing or incorrect values are displayed as -999
Sea surface data collected by the RV Zeeleeuw from 2008-02-19 07:51:23 to 2008-02-19 15:38:05
Time Latitude Longitude Temperature Conductivity Salinity ChlorophylA
2008-02-19 07:52:29 51°13.674 2°55.889 -999 0.090505 0.557033 -1.657694
2008-02-19 07:53:29 51°13.689 2°55.784 -999 0.090505 0.557106 -1.657694
2008-02-19 07:54:28 51°13.692 2°55.718 -999 0.090505 0.557169 -1.691403
2008-02-19 07:55:28 51°13.708 2°55.72 -999 0.090505 0.557252 -1.691403
2008-02-19 07:56:27 51°13.795 2°55.666 -999 0.090505 0.557294 -1.691403
2008-02-19 07:57:26 51°13.91 2°55.578 -999 0.090505 0.557367 -1.691403
2008-02-19 07:58:25 51°13.999 2°55.513 -999 0.090505 0.557461 -1.691403
2008-02-19 07:59:26 51°14.076 2°55.455 -999 0.090505 0.557523 -1.691403
2008-02-19 08:00:26 51°14.171 2°55.368 -999 0.090505 0.557597 -1.691403
2008-02-19 08:01:25 51°14.286 2°55.201 -999 0.090505 0.557659 -1.691403
2008-02-19 08:02:25 51°14.386 2°54.964 -999 0.090505 0.557712 -1.691403
2008-02-19 08:03:25 51°14.482 2°54.694 -999 0.090505 0.557774 -1.657694
2008-02-19 08:04:25 51°14.6 2°54.426 -999 0.090401 0.557212 -1.691403
2008-02-19 08:05:25 51°14.664 2°54.112 -999 0.090401 0.557253 -1.691403
2008-02-19 08:06:25 51°14.726 2°53.893 -999 0.090401 0.557348 -1.691403
2008-02-19 08:07:25 51°14.774 2°53.822 -999 0.090401 0.557442 -1.691403
2008-02-19 08:08:25 51°14.806 2°53.787 -999 0.090401 0.557536 -1.691403
2008-02-19 08:09:25 51°14.827 2°53.763 -999 0.090401 0.55764 -1.691403
2008-02-19 08:10:27 51°14.807 2°53.747 -999 0.090401 0.557735 -1.691403
2008-02-19 08:11:29 51°14.752 2°53.752 -999 0.090401 0.557798 -1.657694
2008-02-19 08:12:27 51°14.774 2°53.748 -999 0.090401 0.557871 -1.691403
2008-02-19 08:13:26 51°14.799 2°53.814 -999 0.090401 0.557965 -1.691403
2008-02-19 08:14:26 51°14.805 2°53.862 -999 0.090297 0.55737 -1.691403
2008-02-19 08:15:25 51°14.806 2°53.868 -999 0.090297 0.557444 -1.691403
2008-02-19 08:16:25 51°14.811 2°53.861 -999 0.090297 0.557506 -1.657694
2008-02-19 08:17:25 51°14.818 2°53.853 -999 0.090297 0.557569 -1.657694
2008-02-19 08:18:25 51°14.823 2°53.846 -999 0.090297 0.557653 -1.657694
2008-02-19 08:19:25 51°14.826 2°53.838 -999 0.090297 0.557748 -1.657694
2008-02-19 08:20:25 51°14.828 2°53.83 -999 0.090297 0.557863 -1.657694
2008-02-19 08:21:25 51°14.831 2°53.827 -999 0.090297 0.557978 -1.657694
2008-02-19 08:22:25 51°14.833 2°53.828 -999 0.090297 0.558104 -1.657694
2008-02-19 08:23:25 51°14.833 2°53.832 -999 0.090297 0.55823 -1.657694
2008-02-19 08:24:25 51°14.834 2°53.856 -999 0.090193 0.557677 -1.657694
2008-02-19 08:25:25 51°14.867 2°54.005 -999 0.090193 0.557803 -1.657694
2008-02-19 08:26:25 51°14.926 2°54.139 -999 0.090193 0.557897 -1.657694
2008-02-19 08:27:25 51°14.988 2°54.247 -999 0.090193 0.558002 -1.657694
2008-02-19 08:28:25 51°15.039 2°54.338 -999 0.090193 0.558108 -1.657694
2008-02-19 08:29:24 51°15.076 2°54.417 -999 0.090193 0.558223 -1.657694
2008-02-19 08:30:25 51°15.101 2°54.472 -999 0.090193 0.558402 -1.657694
2008-02-19 08:31:25 51°15.112 2°54.501 -999 0.090193 0.55855 -1.657694
2008-02-19 08:32:25 51°15.115 2°54.512 -999 0.090089 0.558016 -1.657694
2008-02-19 08:33:26 51°15.118 2°54.516 -999 0.090089 0.558132 -1.657694
2008-02-19 08:34:25 51°15.121 2°54.515 -999 0.090089 0.558237 -1.657694
2008-02-19 08:35:25 51°15.123 2°54.509 -999 0.090089 0.558343 -1.657694
2008-02-19 08:36:25 51°15.125 2°54.502 -999 0.090089 0.558427 -1.657694
2008-02-19 08:37:25 51°15.13 2°54.5 -999 0.090089 0.558543 -1.657694
2008-02-19 08:38:25 51°15.136 2°54.502 -999 0.089985 0.557988 -1.657694
2008-02-19 08:39:25 51°15.142 2°54.506 -999 0.089985 0.558115 -1.657694
2008-02-19 08:40:25 51°15.146 2°54.507 -999 0.089985 0.558252 -1.657694
2008-02-19 08:41:25 51°15.169 2°54.559 -999 0.089985 0.558368 -1.657694
2008-02-19 08:42:25 51°15.262 2°54.744 -999 0.089985 0.558505 -1.657694
2008-02-19 08:43:25 51°15.382 2°54.99 -999 0.089985 0.558632 -1.657694
2008-02-19 08:44:25 51°15.512 2°55.234 -999 0.089985 0.558749 -1.657694
2008-02-19 08:45:25 51°15.63 2°55.47 -999 0.089881 0.558214 -1.657694
2008-02-19 08:46:25 51°15.719 2°55.646 -999 0.089881 0.558341 -1.657694
2008-02-19 08:47:25 51°15.754 2°55.743 -999 0.089881 0.558478 -1.657694
2008-02-19 08:48:25 51°15.76 2°55.802 -999 0.089881 0.558626 -1.657694
2008-02-19 08:49:25 51°15.795 2°55.835 -999 0.089881 0.558722 -1.657694
2008-02-19 08:50:25 51°15.808 2°55.834 -999 0.089881 0.558828 -1.657694
2008-02-19 08:51:25 51°15.81 2°55.828 -999 0.089778 0.558303 -1.657694
2008-02-19 08:52:25 51°15.811 2°55.82 -999 0.089778 0.55844 -1.657694
2008-02-19 08:53:25 51°15.811 2°55.81 -999 0.089778 0.558589 -1.657694
2008-02-19 08:54:25 51°15.812 2°55.799 -999 0.089778 0.558759 -1.657694
2008-02-19 08:55:25 51°15.815 2°55.789 -999 0.089778 0.558918 -1.657694
2008-02-19 08:56:25 51°15.82 2°55.78 -999 0.089674 0.558403 -1.657694
2008-02-19 08:57:25 51°15.827 2°55.775 -999 0.089674 0.558551 -1.657694
2008-02-19 08:58:25 51°15.834 2°55.771 -999 0.089674 0.558689 -1.657694
2008-02-19 08:59:25 51°15.841 2°55.77 -999 0.089674 0.558838 -1.657694
2008-02-19 09:00:25 51°15.851 2°55.772 -999 0.089674 0.558998 -1.657694
2008-02-19 09:01:25 51°15.87 2°55.806 -999 0.08957 0.558482 -1.657694
2008-02-19 09:02:25 51°15.87 2°55.888 -999 0.08957 0.558652 -1.657694
2008-02-19 09:03:25 51°15.882 2°55.99 -999 0.08957 0.558833 -1.657694
2008-02-19 09:04:25 51°15.9 2°56.052 -999 0.08957 0.558961 -1.657694
2008-02-19 09:05:25 51°15.904 2°56.079 -999 0.08957 0.559121 -1.657694
2008-02-19 09:06:25 51°15.905 2°56.099 -999 0.089466 0.558594 -1.657694
2008-02-19 09:07:25 51°15.902 2°56.116 -999 0.089466 0.558733 -1.657694
2008-02-19 09:08:25 51°15.9 2°56.131 -999 0.089466 0.558871 -1.657694
2008-02-19 09:09:25 51°15.899 2°56.145 -999 0.089466 0.55901 -1.657694
2008-02-19 09:10:25 51°15.897 2°56.158 -999 0.089362 0.558472 -1.657694
2008-02-19 09:11:25 51°15.894 2°56.169 -999 0.089362 0.558611 -1.657694
2008-02-19 09:12:25 51°15.892 2°56.179 -999 0.089362 0.558749 -1.657694
2008-02-19 09:13:25 51°15.891 2°56.19 -999 0.089362 0.558899 -1.657694
2008-02-19 09:14:26 51°15.888 2°56.198 -999 0.089362 0.559048 -1.657694
2008-02-19 09:15:25 51°15.887 2°56.207 -999 0.089258 0.558531 -1.657694
2008-02-19 09:16:25 51°15.886 2°56.216 -999 0.089258 0.558681 -1.657694
2008-02-19 09:17:25 51°15.882 2°56.231 -999 0.089258 0.55883 -1.657694
2008-02-19 09:18:25 51°15.882 2°56.294 -999 0.089258 0.559012 -1.657694
2008-02-19 09:19:25 51°15.939 2°56.338 -999 0.089258 0.559151 -1.657694
2008-02-19 09:20:25 51°15.969 2°56.26 -999 0.089154 0.558655 -1.657694
2008-02-19 09:21:25 51°15.897 2°56.144 -999 0.089154 0.558773 -1.657694
2008-02-19 09:22:25 51°15.776 2°55.943 -999 0.089154 0.559019 -1.657694
2008-02-19 09:23:25 51°15.651 2°55.712 -999 0.089154 0.559212 -1.657694
2008-02-19 09:24:25 51°15.529 2°55.473 -999 0.08905 0.558758 -1.657694
2008-02-19 09:25:24 51°15.404 2°55.244 -999 0.08905 0.558994 -1.657694
2008-02-19 09:26:25 51°15.287 2°54.993 -999 0.08905 0.559134 -1.657694
2008-02-19 09:27:25 51°15.182 2°54.751 -999 0.088946 0.558615 -1.657694
2008-02-19 09:28:25 51°15.096 2°54.555 -999 0.088946 0.558776 -1.657694
2008-02-19 09:29:25 51°15.034 2°54.42 -999 0.088946 0.558969 -1.657694
2008-02-19 09:30:26 51°15.001 2°54.336 -999 0.088946 0.559141 -1.657694
2008-02-19 09:31:25 51°14.99 2°54.275 -999 0.088842 0.558665 -1.657694
2008-02-19 09:32:25 51°14.976 2°54.24 -999 0.088842 0.558858 -1.657694
2008-02-19 09:33:25 51°14.962 2°54.221 -999 0.088842 0.559052 -1.657694
2008-02-19 09:34:26 51°14.956 2°54.216 -999 0.088842 0.559235 -1.657694
2008-02-19 09:35:25 51°14.953 2°54.216 -999 0.088738 0.558748 -1.657694
2008-02-19 09:36:25 51°14.951 2°54.219 -999 0.088738 0.558952 -1.657694
2008-02-19 09:37:26 51°14.95 2°54.229 -999 0.088738 0.559157 -1.657694
2008-02-19 09:38:25 51°14.95 2°54.241 -999 0.088634 0.558691 -1.657694
2008-02-19 09:39:25 51°14.953 2°54.256 -999 0.088634 0.558906 -1.657694
2008-02-19 09:40:25 51°14.957 2°54.271 -999 0.088634 0.559112 -1.657694
2008-02-19 09:41:26 51°14.962 2°54.287 -999 0.088634 0.559306 -1.657694
2008-02-19 09:42:25 51°14.958 2°54.3 -999 0.08853 0.558828 -1.657694
2008-02-19 09:43:25 51°14.939 2°54.266 -999 0.08853 0.559044 -1.657694
2008-02-19 09:44:25 51°14.932 2°54.185 -999 0.08853 0.559239 -1.657694
2008-02-19 09:45:26 51°14.911 2°54.109 -999 0.088426 0.558717 -1.657694
2008-02-19 09:46:25 51°14.905 2°54.067 -999 0.088426 0.55889 -1.657694
2008-02-19 09:47:25 51°14.91 2°54.054 -999 0.088426 0.559053 -1.657694
2008-02-19 09:48:26 51°14.917 2°54.044 -999 0.088426 0.559226 -1.657694
2008-02-19 09:49:25 51°14.924 2°54.036 -999 0.088322 0.558682 -1.657694
2008-02-19 09:50:25 51°14.93 2°54.032 -999 0.088322 0.558823 -1.657694
2008-02-19 09:51:25 51°14.934 2°54.032 -999 0.088322 0.558953 -1.657694
2008-02-19 09:52:25 51°14.935 2°54.01 -999 0.088322 0.559084 -1.657694
2008-02-19 09:53:25 51°14.994 2°53.958 -999 0.088322 0.559268 -1.657694
2008-02-19 09:54:25 51°15.099 2°54.065 -999 0.088218 0.558648 -1.657694
2008-02-19 09:55:25 51°15.267 2°54.25 -999 0.088218 0.558865 -1.657694
2008-02-19 09:56:25 51°15.453 2°54.46 -999 0.088218 0.558962 -1.657694
2008-02-19 09:57:25 51°15.638 2°54.672 -999 0.088218 0.559125 -1.657694
2008-02-19 09:58:25 51°15.822 2°54.887 -999 0.088218 0.559278 -1.657694
2008-02-19 09:59:25 51°16.008 2°55.103 -999 0.088114 0.558721 -1.657694
2008-02-19 10:00:25 51°16.196 2°55.32 -999 0.088114 0.558841 -1.657694
2008-02-19 10:01:25 51°16.345 2°55.503 -999 0.088114 0.558972 -1.657694
2008-02-19 10:02:25 51°16.429 2°55.546 -999 0.088114 0.559157 -1.657694
2008-02-19 10:03:25 51°16.461 2°55.496 -999 0.088114 0.559276 -1.657694
2008-02-19 10:04:26 51°16.428 2°55.461 -999 0.088114 0.559396 -1.623984
2008-02-19 10:05:25 51°16.397 2°55.399 -999 0.08801 0.558839 -1.657694
2008-02-19 10:06:25 51°16.364 2°55.343 -999 0.08801 0.559025 -1.657694
2008-02-19 10:07:25 51°16.347 2°55.316 -999 0.08801 0.55909 -1.657694
2008-02-19 10:08:25 51°16.343 2°55.297 -999 0.08801 0.559232 -1.657694
2008-02-19 10:09:25 51°16.342 2°55.29 -999 0.08801 0.559363 -1.657694
2008-02-19 10:10:25 51°16.343 2°55.292 -999 0.087906 0.558784 -1.657694
2008-02-19 10:11:26 51°16.343 2°55.302 -999 0.087906 0.558925 -1.657694
2008-02-19 10:12:25 51°16.343 2°55.316 -999 0.087906 0.559056 -1.657694
2008-02-19 10:13:25 51°16.346 2°55.334 -999 0.087906 0.559187 -1.657694
2008-02-19 10:14:25 51°16.35 2°55.355 -999 0.087906 0.559329 -1.657694
2008-02-19 10:15:26 51°16.356 2°55.378 -999 0.087906 0.55945 -1.657694
2008-02-19 10:16:25 51°16.363 2°55.403 -999 0.087906 0.559581 -1.657694
2008-02-19 10:17:25 51°16.368 2°55.429 -999 0.087802 0.559034 -1.657694
2008-02-19 10:18:26 51°16.369 2°55.451 -999 0.087802 0.559165 -1.657694
2008-02-19 10:19:25 51°16.367 2°55.466 -999 0.087802 0.559296 -1.657694
2008-02-19 10:20:25 51°16.364 2°55.449 -999 0.087802 0.559428 -1.657694
2008-02-19 10:21:25 51°16.363 2°55.413 -999 0.087802 0.559581 -1.657694
2008-02-19 10:22:26 51°16.359 2°55.385 -999 0.087802 0.55969 -1.657694
2008-02-19 10:23:25 51°16.347 2°55.35 -999 0.087698 0.559132 -1.657694
2008-02-19 10:24:25 51°16.296 2°55.218 -999 0.087698 0.559274 -1.657694
2008-02-19 10:25:25 51°16.204 2°54.999 -999 0.087698 0.559438 -1.657694
2008-02-19 10:26:26 51°16.097 2°54.756 -999 0.087698 0.559548 -1.657694
2008-02-19 10:27:26 51°15.983 2°54.527 -999 0.087698 0.559834 -1.657694
2008-02-19 10:28:25 51°15.861 2°54.314 -999 0.087594 0.559022 -1.657694
2008-02-19 10:29:25 51°15.737 2°54.097 -999 0.087594 0.55934 -1.657694
2008-02-19 10:30:25 51°15.632 2°53.901 -999 0.087594 0.559417 -1.657694
2008-02-19 10:31:26 51°15.583 2°53.838 -999 0.087594 0.559516 -1.657694
2008-02-19 10:32:26 51°15.565 2°53.812 -999 0.087594 0.559636 -1.657694
2008-02-19 10:33:25 51°15.559 2°53.77 -999 0.087594 0.559768 -1.657694
2008-02-19 10:34:26 51°15.547 2°53.724 -999 0.087594 0.559911 -1.657694
2008-02-19 10:35:26 51°15.543 2°53.717 -999 0.08749 0.55934 -1.657694
2008-02-19 10:36:25 51°15.542 2°53.719 -999 0.08749 0.559472 -1.657694
2008-02-19 10:37:25 51°15.542 2°53.727 -999 0.08749 0.559615 -1.657694
2008-02-19 10:38:26 51°15.541 2°53.734 -999 0.08749 0.559747 -1.657694
2008-02-19 10:39:25 51°15.539 2°53.734 -999 0.08749 0.55988 -1.657694
2008-02-19 10:40:25 51°15.537 2°53.727 -999 0.08749 0.560023 -1.657694
2008-02-19 10:41:26 51°15.532 2°53.719 -999 0.087386 0.559484 -1.657694
2008-02-19 10:42:26 51°15.526 2°53.713 -999 0.087386 0.559616 -1.657694
2008-02-19 10:43:26 51°15.517 2°53.71 -999 0.087386 0.559771 -1.657694
2008-02-19 10:44:25 51°15.503 2°53.704 -999 0.087386 0.559903 -1.657694
2008-02-19 10:45:26 51°15.475 2°53.657 -999 0.087386 0.560035 -1.657694
2008-02-19 10:46:25 51°15.441 2°53.531 -999 0.087386 0.560212 -1.657694
2008-02-19 10:47:25 51°15.411 2°53.458 -999 0.087282 0.559673 -1.657694
2008-02-19 10:48:25 51°15.409 2°53.41 -999 0.087282 0.559805 -1.657694
2008-02-19 10:49:26 51°15.418 2°53.394 -999 0.087282 0.559949 -1.657694
2008-02-19 10:50:26 51°15.429 2°53.388 -999 0.087282 0.560082 -1.657694
2008-02-19 10:51:25 51°15.439 2°53.384 -999 0.087282 0.560225 -1.657694
2008-02-19 10:52:26 51°15.409 2°53.313 -999 0.087178 0.559663 -1.657694
2008-02-19 10:53:25 51°15.3 2°53.19 -999 0.087178 0.559774 -1.657694
2008-02-19 10:54:25 51°15.211 2°53.083 -999 0.087178 0.559906 -1.657694
2008-02-19 10:55:25 51°15.163 2°53.064 -999 0.087178 0.560028 -1.657694
2008-02-19 10:56:25 51°15.146 2°53.027 -999 0.087178 0.56015 -1.657694
2008-02-19 10:57:25 51°15.138 2°52.972 -999 0.087178 0.560283 -1.657694
2008-02-19 10:58:25 51°15.128 2°52.96 -999 0.087178 0.560427 -1.657694
2008-02-19 10:59:25 51°15.123 2°52.965 -999 0.087074 0.559853 -1.657694
2008-02-19 11:00:25 51°15.118 2°52.972 -999 0.087074 0.559986 -1.657694
2008-02-19 11:01:25 51°15.115 2°52.968 -999 0.087074 0.560119 -1.657694
2008-02-19 11:02:25 51°15.116 2°52.958 -999 0.087074 0.560241 -1.657694
2008-02-19 11:03:25 51°15.127 2°52.94 -999 0.087074 0.560352 -1.657694
2008-02-19 11:04:25 51°15.154 2°52.853 -999 0.087074 0.560464 -1.657694
2008-02-19 11:05:25 51°15.216 2°52.662 -999 0.08697 0.5599 -1.657694
2008-02-19 11:06:26 51°15.342 2°52.476 -999 0.08697 0.56 -1.657694
2008-02-19 11:07:25 51°15.507 2°52.348 -999 0.08697 0.560122 -1.657694
2008-02-19 11:08:25 51°15.712 2°52.285 -999 0.08697 0.560222 -1.657694
2008-02-19 11:09:25 51°15.918 2°52.389 -999 0.08697 0.560356 -1.657694
2008-02-19 11:10:26 51°16.048 2°52.705 -999 0.08697 0.560456 -1.657694
2008-02-19 11:11:25 51°16.164 2°53.025 -999 0.08697 0.560567 -1.657694
2008-02-19 11:12:25 51°16.285 2°53.352 -999 0.086866 0.559969 -1.657694
2008-02-19 11:13:26 51°16.407 2°53.684 -999 0.086866 0.560091 -1.657694
2008-02-19 11:14:25 51°16.513 2°53.972 -999 0.086866 0.560214 -1.657694
2008-02-19 11:15:25 51°16.558 2°54.138 -999 0.086866 0.560314 -1.657694
2008-02-19 11:16:25 51°16.591 2°54.244 -999 0.086866 0.560414 -1.657694
2008-02-19 11:17:26 51°16.622 2°54.321 -999 0.086866 0.560504 -1.657694
2008-02-19 11:18:25 51°16.65 2°54.377 -999 0.086866 0.560615 -1.657694
2008-02-19 11:19:25 51°16.676 2°54.421 -999 0.086866 0.560704 -1.657694
2008-02-19 11:20:25 51°16.698 2°54.458 -999 0.086762 0.560106 -1.657694
2008-02-19 11:21:26 51°16.719 2°54.486 -999 0.086762 0.560195 -1.657694
2008-02-19 11:22:26 51°16.737 2°54.51 -999 0.086762 0.560295 -1.657694
2008-02-19 11:23:25 51°16.753 2°54.533 -999 0.086762 0.560396 -1.657694
2008-02-19 11:24:25 51°16.768 2°54.556 -999 0.086762 0.560496 -1.657694
2008-02-19 11:25:26 51°16.783 2°54.579 -999 0.086762 0.560597 -1.657694
2008-02-19 11:26:25 51°16.797 2°54.602 -999 0.086762 0.560697 -1.657694
2008-02-19 11:27:25 51°16.811 2°54.624 -999 0.086762 0.560798 -1.657694
2008-02-19 11:28:25 51°16.824 2°54.648 -999 0.086658 0.560198 -1.657694
2008-02-19 11:29:26 51°16.837 2°54.671 -999 0.086658 0.560299 -1.657694
2008-02-19 11:30:25 51°16.849 2°54.693 -999 0.086658 0.5604 -1.657694
2008-02-19 11:31:26 51°16.862 2°54.716 -999 0.086658 0.5605 -1.657694
2008-02-19 11:32:25 51°16.875 2°54.739 -999 0.086658 0.560601 -1.657694
2008-02-19 11:33:26 51°16.89 2°54.763 -999 0.086658 0.560702 -1.657694
2008-02-19 11:34:25 51°16.905 2°54.787 -999 0.086658 0.560791 -1.657694
2008-02-19 11:35:25 51°16.919 2°54.81 -999 0.086658 0.560892 -1.657694
2008-02-19 11:36:25 51°16.934 2°54.833 -999 0.086658 0.560993 -1.657694
2008-02-19 11:37:25 51°16.95 2°54.855 -999 0.086554 0.560381 -1.623984
2008-02-19 11:38:26 51°16.966 2°54.878 -999 0.086554 0.560482 -1.657694
2008-02-19 11:39:25 51°16.981 2°54.9 -999 0.086554 0.560572 -1.657694
2008-02-19 11:40:26 51°16.997 2°54.924 -999 0.086554 0.560672 -1.657694
2008-02-19 11:41:25 51°17.011 2°54.947 -999 0.086554 0.560773 -1.657694
2008-02-19 11:42:25 51°17.026 2°54.97 -999 0.086554 0.560852 -1.657694
2008-02-19 11:43:25 51°17.042 2°54.993 -999 0.086554 0.560953 -1.657694
2008-02-19 11:44:26 51°17.057 2°55.016 -999 0.086554 0.561043 -1.657694
2008-02-19 11:45:26 51°17.072 2°55.039 -999 0.08645 0.56043 -1.623984
2008-02-19 11:46:25 51°17.087 2°55.062 -999 0.08645 0.560509 -1.657694
2008-02-19 11:47:26 51°17.102 2°55.085 -999 0.08645 0.560599 -1.657694
2008-02-19 11:48:26 51°17.118 2°55.109 -999 0.08645 0.560677 -1.657694
2008-02-19 11:49:25 51°17.132 2°55.132 -999 0.08645 0.560756 -1.657694
2008-02-19 11:50:25 51°17.146 2°55.154 -999 0.08645 0.560846 -1.657694
2008-02-19 11:51:26 51°17.163 2°55.177 -999 0.08645 0.560935 -1.657694
2008-02-19 11:52:26 51°17.189 2°55.198 -999 0.08645 0.561014 -1.657694
2008-02-19 11:53:26 51°17.23 2°55.234 -999 0.08645 0.561104 -1.657694
2008-02-19 11:54:26 51°17.271 2°55.304 -999 0.086346 0.560491 -1.657694
2008-02-19 11:55:26 51°17.28 2°55.404 -999 0.086346 0.56057 -1.657694
2008-02-19 11:56:26 51°17.247 2°55.447 -999 0.086346 0.56066 -1.657694
2008-02-19 11:57:26 51°17.209 2°55.416 -999 0.086346 0.560716 -1.657694
2008-02-19 11:58:26 51°17.159 2°55.375 -999 0.086346 0.560851 -1.657694
2008-02-19 11:59:26 51°17.103 2°55.306 -999 0.086346 0.560918 -1.657694
2008-02-19 12:00:26 51°17.032 2°55.217 -999 0.086347 0.561053 -1.657694
2008-02-19 12:01:26 51°16.97 2°55.15 -999 0.086347 0.561132 -1.657694
2008-02-19 12:02:26 51°16.949 2°55.104 -999 0.086347 0.561222 -1.657694
2008-02-19 12:03:26 51°16.928 2°55.078 -999 0.086243 0.560642 -1.657694
2008-02-19 12:04:26 51°16.906 2°55.048 -999 0.086243 0.560744 -1.657694
2008-02-19 12:05:26 51°16.892 2°55.025 -999 0.086243 0.560868 -1.657694
2008-02-19 12:06:26 51°16.884 2°55.027 -999 0.086243 0.560969 -1.657694
2008-02-19 12:07:26 51°16.88 2°55.036 -999 0.086243 0.561059 -1.657694
2008-02-19 12:08:26 51°16.878 2°55.047 -999 0.086243 0.561183 -1.657694
2008-02-19 12:09:26 51°16.868 2°55.051 -999 0.086243 0.561274 -1.657694
2008-02-19 12:10:26 51°16.833 2°55.01 -999 0.086139 0.560681 -1.657694
2008-02-19 12:11:26 51°16.825 2°54.924 -999 0.086139 0.560806 -1.657694
2008-02-19 12:12:26 51°16.782 2°54.862 -999 0.086139 0.560952 -1.657694
2008-02-19 12:13:26 51°16.75 2°54.806 -999 0.086139 0.561009 -1.657694
2008-02-19 12:14:26 51°16.73 2°54.791 -999 0.086139 0.561122 -1.657694
2008-02-19 12:15:25 51°16.727 2°54.789 -999 0.086139 0.561201 -1.657694
2008-02-19 12:16:26 51°16.724 2°54.79 -999 0.086139 0.561314 -1.657694
2008-02-19 12:17:26 51°16.722 2°54.793 -999 0.086139 0.561393 -1.657694
2008-02-19 12:18:26 51°16.703 2°54.776 -999 0.086035 0.560777 -1.657694
2008-02-19 12:19:26 51°16.652 2°54.684 -999 0.086035 0.560857 -1.657694
2008-02-19 12:20:26 51°16.567 2°54.527 -999 0.086035 0.56097 -1.657694
2008-02-19 12:21:26 51°16.478 2°54.339 -999 0.086035 0.561071 -1.657694
2008-02-19 12:22:25 51°16.395 2°54.16 -999 0.086035 0.561185 -1.657694
2008-02-19 12:23:26 51°16.337 2°54.038 -999 0.086035 0.561309 -1.657694
2008-02-19 12:24:26 51°16.289 2°53.938 -999 0.086035 0.5614 -1.657694
2008-02-19 12:25:26 51°16.251 2°53.861 -999 0.085931 0.560806 -1.657694
2008-02-19 12:26:26 51°16.236 2°53.822 -999 0.085931 0.560897 -1.657694
2008-02-19 12:27:26 51°16.244 2°53.813 -999 0.085931 0.560987 -1.657694
2008-02-19 12:28:26 51°16.256 2°53.808 -999 0.085931 0.561089 -1.657694
2008-02-19 12:29:26 51°16.265 2°53.801 -999 0.085931 0.561169 -1.657694
2008-02-19 12:30:26 51°16.265 2°53.795 -999 0.085931 0.561271 -1.657694
2008-02-19 12:31:26 51°16.258 2°53.802 -999 0.085931 0.561339 -1.623984
2008-02-19 12:32:26 51°16.249 2°53.819 -999 0.085931 0.561407 -1.657694
2008-02-19 12:33:26 51°16.238 2°53.834 -999 0.085827 0.56079 -1.657694
2008-02-19 12:34:26 51°16.228 2°53.843 -999 0.085827 0.560881 -1.657694
2008-02-19 12:35:26 51°16.219 2°53.843 -999 0.085827 0.560983 -1.657694
2008-02-19 12:36:26 51°16.209 2°53.839 -999 0.085827 0.561073 -1.657694
2008-02-19 12:37:26 51°16.198 2°53.837 -999 0.085827 0.561187 -1.657694
2008-02-19 12:38:26 51°16.191 2°53.838 -999 0.085827 0.561278 -1.657694
2008-02-19 12:39:26 51°16.18 2°53.829 -999 0.085827 0.561369 -1.623984
2008-02-19 12:40:26 51°16.128 2°53.747 -999 0.085827 0.561471 -1.657694
2008-02-19 12:41:26 51°16.084 2°53.652 -999 0.085723 0.560876 -1.657694
2008-02-19 12:42:26 51°16.063 2°53.495 -999 0.085723 0.560967 -1.657694
2008-02-19 12:43:26 51°15.989 2°53.229 -999 0.085723 0.561092 -1.657694
2008-02-19 12:44:26 51°15.871 2°52.998 -999 0.085723 0.561126 -1.657694
2008-02-19 12:45:26 51°15.731 2°52.788 -999 0.085723 0.561274 -1.657694
2008-02-19 12:46:26 51°15.592 2°52.577 -999 0.085723 0.561387 -1.657694
2008-02-19 12:47:26 51°15.451 2°52.368 -999 0.085723 0.561467 -1.657694
2008-02-19 12:48:26 51°15.31 2°52.157 -999 0.085619 0.560849 -1.657694
2008-02-19 12:49:26 51°15.169 2°51.944 -999 0.085619 0.560928 -1.657694
2008-02-19 12:50:26 51°15.057 2°51.733 -999 0.085619 0.561019 -1.657694
2008-02-19 12:51:26 51°15.019 2°51.541 -999 0.085619 0.561133 -1.657694
2008-02-19 12:52:26 51°14.994 2°51.442 -999 0.085619 0.561247 -1.657694
2008-02-19 12:53:26 51°15.002 2°51.419 -999 0.085619 0.561315 -1.657694
2008-02-19 12:54:26 51°15.012 2°51.418 -999 0.085619 0.561361 -1.657694
2008-02-19 12:55:26 51°15.025 2°51.419 -999 0.085619 0.561452 -1.657694
2008-02-19 12:56:26 51°15.037 2°51.422 -999 0.085619 0.561521 -1.657694
2008-02-19 12:57:26 51°15.047 2°51.427 -999 0.085515 0.560901 -1.657694
2008-02-19 12:58:26 51°15.048 2°51.434 -999 0.085515 0.56097 -1.623984
2008-02-19 12:59:26 51°15.047 2°51.443 -999 0.085515 0.561061 -1.657694
2008-02-19 13:00:26 51°15.141 2°51.47 -999 0.085515 0.561141 -1.657694
2008-02-19 13:01:26 51°15.311 2°51.576 -999 0.085515 0.561221 -1.657694
2008-02-19 13:02:26 51°15.484 2°51.713 -999 0.085515 0.561278 -1.657694
2008-02-19 13:03:26 51°15.65 2°51.88 -999 0.085515 0.561358 -1.657694
2008-02-19 13:04:26 51°15.816 2°52.048 -999 0.085515 0.561449 -1.657694
2008-02-19 13:05:26 51°15.966 2°52.238 -999 0.085515 0.561529 -1.657694
2008-02-19 13:06:26 51°16.09 2°52.474 -999 0.085515 0.561609 -1.657694
2008-02-19 13:07:26 51°16.224 2°52.701 -999 0.085411 0.560966 -1.657694
2008-02-19 13:08:26 51°16.361 2°52.926 -999 0.085411 0.561034 -1.657694
2008-02-19 13:09:26 51°16.498 2°53.151 -999 0.085411 0.561103 -1.657694
2008-02-19 13:10:26 51°16.637 2°53.376 -999 0.085411 0.56116 -1.657694
2008-02-19 13:11:26 51°16.743 2°53.461 -999 0.085411 0.561286 -1.657694
2008-02-19 13:12:26 51°16.791 2°53.41 -999 0.085411 0.561331 -1.623984
2008-02-19 13:13:26 51°16.787 2°53.339 -999 0.085411 0.561354 -1.623984
2008-02-19 13:14:26 51°16.76 2°53.258 -999 0.085411 0.561434 -1.623984
2008-02-19 13:15:25 51°16.74 2°53.195 -999 0.085411 0.561514 -1.657694
2008-02-19 13:16:26 51°16.717 2°53.148 -999 0.085411 0.561583 -1.657694
2008-02-19 13:17:25 51°16.696 2°53.107 -999 0.085411 0.561652 -1.657694
2008-02-19 13:18:26 51°16.683 2°53.078 -999 0.085307 0.561008 -1.657694
2008-02-19 13:19:26 51°16.678 2°53.061 -999 0.085307 0.561065 -1.657694
2008-02-19 13:20:26 51°16.677 2°53.057 -999 0.085307 0.561145 -1.657694
2008-02-19 13:21:26 51°16.677 2°53.058 -999 0.085307 0.561203 -1.623984
2008-02-19 13:22:25 51°16.676 2°53.061 -999 0.085307 0.561283 -1.657694
2008-02-19 13:23:26 51°16.674 2°53.065 -999 0.085307 0.561374 -1.657694
2008-02-19 13:24:26 51°16.665 2°53.065 -999 0.085307 0.561443 -1.657694
2008-02-19 13:25:26 51°16.648 2°53.049 -999 0.085307 0.561523 -1.623984
2008-02-19 13:26:25 51°16.617 2°52.953 -999 0.085307 0.561603 -1.657694
2008-02-19 13:27:25 51°16.568 2°52.852 -999 0.085307 0.561729 -1.623984
2008-02-19 13:28:26 51°16.549 2°52.76 -999 0.085307 0.561787 -1.657694
2008-02-19 13:29:26 51°16.518 2°52.711 -999 0.085203 0.561245 -1.657694
2008-02-19 13:30:26 51°16.505 2°52.698 -999 0.085203 0.56128 -1.657694
2008-02-19 13:31:26 51°16.501 2°52.69 -999 0.085203 0.561371 -1.657694
2008-02-19 13:32:26 51°16.499 2°52.686 -999 0.085203 0.561452 -1.657694
2008-02-19 13:33:25 51°16.498 2°52.683 -999 0.085203 0.561521 -1.623984
2008-02-19 13:34:26 51°16.497 2°52.68 -999 0.085203 0.561601 -1.657694
2008-02-19 13:35:26 51°16.497 2°52.677 -999 0.085203 0.561681 -1.657694
2008-02-19 13:36:26 51°16.485 2°52.658 -999 0.085203 0.56175 -1.657694
2008-02-19 13:37:26 51°16.464 2°52.621 -999 0.085203 0.561854 -1.657694
2008-02-19 13:38:25 51°16.459 2°52.608 -999 0.085099 0.561208 -1.657694
2008-02-19 13:39:26 51°16.462 2°52.597 -999 0.085099 0.5613 -1.657694
2008-02-19 13:40:26 51°16.464 2°52.588 -999 0.085099 0.561392 -1.623984
2008-02-19 13:41:26 51°16.468 2°52.583 -999 0.085099 0.561472 -1.657694
2008-02-19 13:42:26 51°16.47 2°52.58 -999 0.085099 0.561564 -1.657694
2008-02-19 13:43:26 51°16.47 2°52.576 -999 0.085099 0.561633 -1.623984
2008-02-19 13:44:25 51°16.468 2°52.57 -999 0.085099 0.561714 -1.657694
2008-02-19 13:45:26 51°16.462 2°52.56 -999 0.085099 0.561794 -1.657694
2008-02-19 13:46:26 51°16.436 2°52.508 -999 0.085099 0.561875 -1.657694
2008-02-19 13:47:26 51°16.377 2°52.443 -999 0.084995 0.561309 -1.657694
2008-02-19 13:48:26 51°16.329 2°52.335 -999 0.084995 0.561378 -1.657694
2008-02-19 13:49:25 51°16.295 2°52.275 -999 0.084995 0.561539 -1.657694
2008-02-19 13:50:26 51°16.293 2°52.267 -999 0.084995 0.561585 -1.657694
2008-02-19 13:51:26 51°16.293 2°52.26 -999 0.084995 0.561689 -1.657694
2008-02-19 13:52:26 51°16.292 2°52.251 -999 0.084995 0.561758 -1.657694
2008-02-19 13:53:26 51°16.289 2°52.241 -999 0.084995 0.561827 -1.657694
2008-02-19 13:54:26 51°16.285 2°52.23 -999 0.084995 0.561908 -1.657694
2008-02-19 13:55:26 51°16.275 2°52.215 -999 0.084995 0.561954 -1.657694
2008-02-19 13:56:26 51°16.27 2°52.136 -999 0.084891 0.561365 -1.657694
2008-02-19 13:57:26 51°16.337 2°52.096 -999 0.084891 0.561388 -1.657694
2008-02-19 13:58:26 51°16.464 2°52.131 -999 0.084891 0.561457 -1.657694
2008-02-19 13:59:26 51°16.636 2°52.189 -999 0.084891 0.561537 -1.657694
2008-02-19 14:00:26 51°16.815 2°52.266 -999 0.084891 0.561584 -1.657694
2008-02-19 14:01:26 51°16.994 2°52.348 -999 0.084891 0.561653 -1.657694
2008-02-19 14:02:26 51°17.17 2°52.426 -999 0.084891 0.561722 -1.657694
2008-02-19 14:03:26 51°17.339 2°52.523 -999 0.084891 0.56178 -1.657694
2008-02-19 14:04:26 51°17.48 2°52.695 -999 0.084891 0.561837 -1.657694
2008-02-19 14:05:26 51°17.559 2°52.815 -999 0.084891 0.561907 -1.657694
2008-02-19 14:06:26 51°17.586 2°52.852 -999 0.084891 0.561987 -1.657694
2008-02-19 14:07:25 51°17.593 2°52.846 -999 0.084891 0.562011 -1.657694
2008-02-19 14:08:26 51°17.613 2°52.825 -999 0.084787 0.561351 -1.657694
2008-02-19 14:09:26 51°17.619 2°52.824 -999 0.084787 0.561374 -1.657694
2008-02-19 14:10:26 51°17.624 2°52.817 -999 0.084787 0.561443 -1.657694
2008-02-19 14:11:26 51°17.631 2°52.806 -999 0.084787 0.56149 -1.657694
2008-02-19 14:12:26 51°17.638 2°52.792 -999 0.084787 0.561536 -1.657694
2008-02-19 14:13:26 51°17.647 2°52.777 -999 0.084787 0.56157 -1.657694
2008-02-19 14:14:26 51°17.657 2°52.764 -999 0.084787 0.561617 -1.623984
2008-02-19 14:15:26 51°17.671 2°52.747 -999 0.084787 0.56164 -1.657694
2008-02-19 14:16:26 51°17.692 2°52.679 -999 0.084787 0.561755 -1.657694
2008-02-19 14:17:26 51°17.691 2°52.558 -999 0.084787 0.561732 -1.623984
2008-02-19 14:18:26 51°17.775 2°52.473 -999 0.084787 0.561836 -1.657694
2008-02-19 14:19:26 51°17.935 2°52.471 -999 0.084787 0.561871 -1.623984
2008-02-19 14:20:26 51°18.144 2°52.473 -999 0.084787 0.561906 -1.657694
2008-02-19 14:21:26 51°18.358 2°52.514 -999 0.084787 0.561929 -1.657694
2008-02-19 14:22:26 51°18.459 2°52.623 -999 0.084787 0.561998 -1.657694
2008-02-19 14:23:26 51°18.505 2°52.691 -999 0.084787 0.562079 -1.623984
2008-02-19 14:24:26 51°18.564 2°52.728 -999 0.084787 0.562102 -1.657694
2008-02-19 14:25:25 51°18.625 2°52.763 -999 0.084787 0.562125 -1.657694
2008-02-19 14:26:26 51°18.672 2°52.788 -999 0.084683 0.561465 -1.657694
2008-02-19 14:27:27 51°18.676 2°52.772 -999 0.084683 0.561488 -1.657694
2008-02-19 14:28:28 51°18.68 2°52.756 -999 0.084683 0.561523 -1.657694
2008-02-19 14:29:27 51°18.682 2°52.742 -999 0.084683 0.561569 -1.657694
2008-02-19 14:30:26 51°18.685 2°52.727 -999 0.084683 0.561604 -1.657694
2008-02-19 14:31:26 51°18.691 2°52.708 -999 0.084683 0.56165 -1.657694
2008-02-19 14:32:26 51°18.718 2°52.632 -999 0.084683 0.561731 -1.657694
2008-02-19 14:33:26 51°18.672 2°52.508 -999 0.084683 0.561743 -1.657694
2008-02-19 14:34:26 51°18.573 2°52.307 -999 0.084683 0.561777 -1.657694
2008-02-19 14:35:26 51°18.469 2°52.091 -999 0.084683 0.561858 -1.623984
2008-02-19 14:36:26 51°18.363 2°51.874 -999 0.084683 0.561882 -1.657694
2008-02-19 14:37:26 51°18.257 2°51.656 -999 0.084683 0.561916 -1.657694
2008-02-19 14:38:26 51°18.146 2°51.449 -999 0.084683 0.561974 -1.657694
2008-02-19 14:39:26 51°18.001 2°51.326 -999 0.084683 0.562009 -1.657694
2008-02-19 14:40:26 51°17.915 2°51.202 -999 0.084683 0.562055 -1.657694
2008-02-19 14:41:26 51°17.866 2°51.14 -999 0.084683 0.562125 -1.657694
2008-02-19 14:42:26 51°17.852 2°51.119 -999 0.084683 0.562148 -1.657694
2008-02-19 14:43:26 51°17.855 2°51.105 -999 0.084683 0.562183 -1.657694
2008-02-19 14:44:26 51°17.857 2°51.088 -999 0.084683 0.562218 -1.657694
2008-02-19 14:45:26 51°17.859 2°51.071 -999 0.084683 0.562252 -1.657694
2008-02-19 14:46:26 51°17.843 2°51.057 -999 0.084683 0.562299 -1.623984
2008-02-19 14:47:26 51°17.772 2°51.111 -999 0.084683 0.562334 -1.657694
2008-02-19 14:48:26 51°17.622 2°51.254 -999 0.084579 0.561649 -1.657694
2008-02-19 14:49:26 51°17.453 2°51.416 -999 0.084579 0.561742 -1.657694
2008-02-19 14:50:26 51°17.281 2°51.579 -999 0.084579 0.561765 -1.657694
2008-02-19 14:51:26 51°17.108 2°51.739 -999 0.084579 0.561823 -1.657694
2008-02-19 14:52:26 51°16.936 2°51.901 -999 0.084579 0.561881 -1.657694
2008-02-19 14:53:25 51°16.767 2°52.058 -999 0.084579 0.561939 -1.657694
2008-02-19 14:54:26 51°16.593 2°52.222 -999 0.084579 0.561985 -1.657694
2008-02-19 14:55:25 51°16.433 2°52.401 -999 0.084579 0.56202 -1.657694
2008-02-19 14:56:26 51°16.266 2°52.589 -999 0.084579 0.562067 -1.657694
2008-02-19 14:57:26 51°16.106 2°52.78 -999 0.084579 0.562102 -1.657694
2008-02-19 14:58:26 51°15.945 2°52.969 -999 0.084579 0.562171 -1.657694
2008-02-19 14:59:26 51°15.783 2°53.156 -999 0.084579 0.562206 -1.657694
2008-02-19 15:00:25 51°15.622 2°53.339 -999 0.084579 0.562264 -1.657694
2008-02-19 15:01:26 51°15.456 2°53.53 -999 0.084579 0.562311 -1.657694
2008-02-19 15:02:25 51°15.293 2°53.687 -999 0.084579 0.562369 -1.657694
2008-02-19 15:03:26 51°15.134 2°53.826 -999 0.084579 0.562404 -1.657694
2008-02-19 15:04:25 51°15.009 2°53.913 -999 0.084579 0.562462 -1.657694
2008-02-19 15:05:26 51°14.896 2°53.978 -999 0.084475 0.561776 -1.657694
2008-02-19 15:06:26 51°14.787 2°54.03 -999 0.084475 0.561811 -1.657694
2008-02-19 15:07:25 51°14.711 2°54.063 -999 0.084475 0.561834 -1.657694
2008-02-19 15:08:26 51°14.651 2°54.08 -999 0.084475 0.561846 -1.657694
2008-02-19 15:09:25 51°14.613 2°54.088 -999 0.084475 0.561857 -1.657694
2008-02-19 15:10:26 51°14.585 2°54.085 -999 0.084475 0.561857 -1.657694
2008-02-19 15:11:26 51°14.563 2°54.074 -999 0.084475 0.561881 -1.657694
2008-02-19 15:12:26 51°14.531 2°54.114 -999 0.084475 0.56195 -1.657694
2008-02-19 15:13:26 51°14.523 2°54.157 -999 0.084475 0.561939 -1.657694
2008-02-19 15:14:26 51°14.521 2°54.161 -999 0.084475 0.561962 -1.657694
2008-02-19 15:15:26 51°14.529 2°54.179 -999 0.084475 0.562008 -1.657694
2008-02-19 15:16:25 51°14.529 2°54.172 -999 0.084475 0.562043 -1.657694
2008-02-19 15:17:26 51°14.525 2°54.15 -999 0.084475 0.56209 -1.657694
2008-02-19 15:18:25 51°14.521 2°54.126 -999 0.084475 0.562125 -1.657694
2008-02-19 15:19:26 51°14.514 2°54.098 -999 0.084475 0.562148 -1.657694
2008-02-19 15:20:26 51°14.508 2°54.065 -999 0.084475 0.562171 -1.657694
2008-02-19 15:21:26 51°14.501 2°54.029 -999 0.084475 0.562195 -1.657694
2008-02-19 15:22:26 51°14.491 2°53.998 -999 0.084475 0.562218 -1.657694
2008-02-19 15:23:25 51°14.475 2°53.994 -999 0.084475 0.562264 -1.657694
2008-02-19 15:24:26 51°14.461 2°54.056 -999 0.084475 0.562264 -1.657694
2008-02-19 15:25:25 51°14.441 2°54.266 -999 0.084475 0.562288 -1.657694
2008-02-19 15:26:26 51°14.41 2°54.556 -999 0.084475 0.562323 -1.657694
2008-02-19 15:27:26 51°14.382 2°54.861 -999 0.084475 0.562357 -1.657694
2008-02-19 15:28:26 51°14.307 2°55.152 -999 0.084475 0.562357 -1.657694
2008-02-19 15:29:26 51°14.184 2°55.354 -999 0.084475 0.562416 -1.657694
2008-02-19 15:30:26 51°14.085 2°55.437 -999 0.084475 0.562439 -1.657694
2008-02-19 15:31:26 51°14.025 2°55.488 -999 0.084475 0.562462 -1.657694
2008-02-19 15:32:25 51°13.966 2°55.533 -999 0.084475 0.562474 -1.657694
2008-02-19 15:33:26 51°13.89 2°55.591 -999 0.084475 0.562497 -1.657694
2008-02-19 15:34:25 51°13.812 2°55.651 -999 0.084475 0.562532 -1.657694
2008-02-19 15:35:26 51°13.743 2°55.727 -999 0.084475 0.562555 -1.657694
2008-02-19 15:36:25 51°13.688 2°55.833 -999 0.084475 0.562579 -1.657694
2008-02-19 15:37:27 51°13.67 2°55.924 -999 0.084475 0.562614 -1.657694